Flag for Poland Weather past 2 weeks in Bielsko-Biała, Poland

Now
61 °F

Passing clouds.


Feels Like: 61 °F
Forecast: 58 / 66 °F
Wind: 1 mph from South

Location: Katowice

Current Time: Jul 28, 2015 at 9:52:27 PM

Latest Report: Jul 28, 2015 at 9:00 PM


Visibility: 31 mi

Pressure: 29.77 "Hg

Humidity: 77%

Dew point: 53 °F

Location of Bielsko-BiałaLocation

Historic Weather in Bielsko-Biała — Graph

°F

Bielsko-Biała temperature yesterday

Maximum temperature yesterday: 69 °F (at 2:00 PM)
Minimum temperature yesterday: 53 °F (at 2:00 AM)
Average temperature yesterday: 62 °F

Past Weeks' High & Low Weather Summary

 TemperatureHumidityPressure
High90 °F (Jul 18, 3:00 PM)97% (Jul 14, 7:00 AM)30.15 "Hg (Jul 14, 7:00 AM)
Low53 °F (Jul 27, 2:00 AM)30% (Jul 17, 5:00 PM)29.65 "Hg (Jul 25, 2:00 PM)
Average70 °F67%29.92 "Hg
* Reported Jul 13 9:00 PM — Jul 28 8:00 PM, Bielsko-Biała, Weather by CustomWeather, © 2015

Note: Actual official high and low records may vary slightly from our data, if they occured in-between our weather recording intervals... More about our weather records

Advertising

Bielsko-Biała weather history for previous 24 hours

 ConditionsComfort  
Time TempWeatherWind HumidityBarometerVisibility
8:00 PM
Tue, Jul 28
67 °FSprinkles. Overcast.1 mph53%29.75 "Hg19 mi
7:00 PM69 °FPartly sunny.1 mph52%29.73 "Hg19 mi
6:00 PM72 °FPartly sunny.3 mph47%29.71 "Hg19 mi
5:00 PM72 °FPartly sunny.8 mph51%29.71 "Hg19 mi
4:00 PM73 °FOvercast.10 mph45%29.71 "Hg19 mi
3:00 PM76 °FOvercast.8 mph36%29.70 "Hg19 mi
2:00 PM73 °FPartly sunny.7 mph44%29.73 "Hg19 mi
1:00 PM70 °FOvercast.7 mph48%29.75 "Hg31 mi
12:00 PM73 °FScattered clouds.10 mph37%29.74 "Hg19 mi
11:00 AM70 °FScattered clouds.6 mph53%29.75 "Hg19 mi
10:00 AM70 °FPassing clouds.7 mph55%29.75 "Hg19 mi
8:00 AM65 °FScattered clouds.6 mph67%29.76 "Hg19 mi
7:00 AM61 °FPassing clouds.5 mph79%29.76 "Hg19 mi
6:00 AM58 °FScattered clouds.3 mph87%29.76 "Hg19 mi
5:00 AM57 °FPassing clouds.3 mph85%29.76 "Hg19 mi
4:00 AM57 °FOvercast.3 mph89%29.75 "Hg19 mi
3:00 AM56 °FPassing clouds.3 mph91%29.75 "Hg19 mi
2:00 AM58 °FPassing clouds.5 mph90%29.75 "Hg19 mi
1:00 AM60 °FClear.6 mph86%29.75 "Hg19 mi
12:00 AM60 °FPassing clouds.6 mph84%29.74 "Hg19 mi
10:00 PM
Mon, Jul 27
61 °FPassing clouds.5 mph83%29.72 "Hg19 mi
9:00 PM62 °FPassing clouds.5 mph77%29.71 "Hg19 mi
Weather by CustomWeather, © 2015

See weather overviewHow to use our weather pages